Location: Skalnate Pleso
(49.1889°N, 20.2450°E)
Time: 21:47:08
(UTC+01:00)

Cosmos 2237 - Pass Details

Date: 19 November 2019
Orbit: 845 x 857 km, 70.8° (Epoch: 13 December)

Event Time Altitude Azimuth Distance (km) Brightness Sun altitude
Exits shadow 05:06:39 14° 329° (NNW) 2,215 6.0 -17.4°
Maximum altitude 05:11:38 80° 245° (WSW) 874 4.1 -16.6°
Drops below altitude 10° 05:17:19 10° 158° (SSE) 2,476 7.1 -15.7°
Sets 05:19:46 0° 158° (SSE) 3,405 7.9 -15.3°
